Other Public Products
Issued by NWS Grand Forks, ND

Home | Current Version | Previous Version | Text Only | Print | Product List | Glossary On
Versions: 1 2 3 4 5 6 7 8 9 10 11 12 13 14 15 16 17 18 19 20 21 22 23 24 25 26 27 28 29 30 31 32 33 34 35 36 37 38 39 40 41 42 43 44 45 46 47 48 49 50
000
FPUS83 KFGF 191631
OPUFGF
PRAIRIE TO PINES WEATHER ROUNDUP
NATIONAL WEATHER SERVICE EASTERN NORTH DAKOTA/GRAND FORKS ND
1000 AM CST SUN NOV 19 2017

 **SATELLITE DATA USED TO AUGMENT SKY COVER AT AUTOMATED STATIONS**
 *****  WEATHER ACROSS EASTERN NORTH DAKOTA  *****

CITY           SKY/WX    TMP DP  RH WIND       PRES   REMARKS
GRAND FORKS    FAIR      20  16  84 S7        29.88F WCI  11
GRND FORKS AFB FAIR      21  14  73 S6        29.87F WCI  14
GRND FORKS NWS   N/A     21 N/A N/A S7          N/A  WCI  13
BUXTON           N/A     26  21  82 SE6         N/A  WCI  19
DEVILS LAKE    FAIR      27  22  81 SW10      29.82F WCI  17
FARGO          FAIR      25  18  74 S12       29.92F WCI  14
WAHPETON ARPT  NOT AVBL
$$

 *****  WEATHER ACROSS CENTRAL AND WESTERN NORTH DAKOTA  *****

CITY           SKY/WX    TMP DP  RH WIND       PRES   REMARKS
JAMESTOWN      FAIR      32  24  72 SW13      29.86F WCI  22
BISMARCK       FAIR      36  26  67 W3        29.90F
MINOT          FAIR      35  22  58 SW8G18    29.81S
MINOT AFB      FAIR      32  23  69 W13       29.80S WCI  22
GARRISON         N/A     31  24  75 W7        29.84F WCI  24
WILLISTON      FAIR      26  22  84 S5        29.85F WCI  20
DICKINSON      FAIR      35  21  56 W12       29.86F
HETTINGER      FAIR      35  22  58 W13       29.93S
$$

 *****  OTHER OBSERVATIONS NORTHEAST NORTH DAKOTA  *****

CITY           SKY/WX    TMP DP  RH WIND       PRES   REMARKS
WALHALLA       FAIR      19  18  93 E5        29.84F WCI  13
LANGDON        NOT AVBL
CAVALIER       FAIR      19  14  79 S6        29.85F WCI  11
GRAFTON        NOT AVBL
CANDO          FAIR      23  21  93 N6        29.84R WCI  16
FORT TOTTEN    NOT AVBL
ROLLA          FAIR      30  21  69 CALM      29.78F
RUGBY          NOT AVBL
 ***** THE ABOVE OBSERVATIONS ARE NON NWS ARE NOT QUALITY
        CONTROLLED AND MAY MIS-REPORT RAIN FOR SNOW...
$$

 *****  OTHER OBSERVATIONS SOUTHEAST NORTH DAKOTA *****

CITY           SKY/WX    TMP DP  RH WIND       PRES   REMARKS
COOPERSTOWN    FAIR      30  23  74 W10G16    29.85F WCI  21
VALLEY CITY    NOT AVBL
OAKES            N/A     30  25  80 S10       29.91F WCI  21
GWINNER          N/A     30  23  74 SW13      29.91F WCI  20
SHEYENNE NWR     N/A     29  23  77 SW13      29.95S WCI  19
BUFFALO          N/A     29  21  72 NE9         N/A  WCI  20
WYNDMERE       NOT AVBL
 ***** THE ABOVE OBSERVATIONS ARE NON NWS ARE NOT QUALITY
       CONTROLLED AND MAY MIS-REPORT RAIN FOR SNOW...
$$

  *****  WEATHER ACROSS NORTHERN MINNESOTA  *****

CITY           SKY/WX    TMP DP  RH WIND       PRES   REMARKS
FLAG ISLAND    PTSUNNY   10   7  85 SW5       29.87F WCI   2
WARROAD        FAIR      16  10  79 SW3       29.88F
ROSEAU         FAIR      18  12  79 SW5       29.88F WCI  11
HALLOCK        CLOUDY    18  16  93 SE12      29.86F WCI   5
THF RVR FALLS  CLOUDY    20  14  77 SE6       29.90F WCI  12
HALSTAD          N/A     24  18  78 S12         N/A  WCI  12
FOSSTON        PTSUNNY   21  16  79 S10       29.89F WCI  10
BAUDETTE       FLURRIES  13   8  81 SW3       29.89F
WASKISH        FAIR      18  12  79 SW7       29.90F WCI   8
CROOKSTON      PTSUNNY   21  18  86 S9        29.90F WCI  11
$$
  *****  WEATHER ACROSS CENTRAL AND WEST MINNESOTA  *****

CITY           SKY/WX    TMP DP  RH WIND       PRES   REMARKS
BEMIDJI        FAIR      18  11  73 S5        29.90F WCI  11
PARK RAPIDS    CLOUDY    20  15  81 SW6       29.92F WCI  12
WADENA         FAIR      25  18  74 SW5       29.92F WCI  19
DETROIT LAKES  FAIR      27  19  74 S5        29.91F WCI  21
MOORHEAD       FAIR      25  18  74 CALM      29.93S
FERGUS FALLS   FAIR      27  21  80 S8        29.97F WCI  18
ELBOW LAKE     FAIR      27  22  79 S7        29.96S HAZE    WCI  20
MORRIS MN      FAIR      32  23  69 S9        29.96S WCI  24
STAPLES        FAIR      25  16  68 SW6       29.94S WCI  18
WHEATON        FAIR      34  23  64 S8        29.97F
$$
  *****  WEATHER ELSEWHERE ACROSS MINNESOTA  *****

CITY           SKY/WX    TMP DP  RH WIND       PRES   REMARKS
DULUTH         CLOUDY    14   9  80 W13       29.93F WCI   0
INTRNTL FALLS  CLOUDY    11   4  73 SW5       29.90S WCI   3
ELY            FAIR      10   5  79 W5        29.89S WCI   2
CLOQUET        CLOUDY    18   9  68 SW9       29.95S WCI   6
BRAINERD       CLOUDY    23  12  62 SW10      29.97F WCI  12
HIBBING        CLOUDY    13   9  84 SW6       29.92F WCI   4
ALEXANDRIA     PTSUNNY   27  19  72 SW8       29.96F WCI  19
SAINT CLOUD    FAIR      23  16  74 S6        30.01F WCI  16
MINNEAPOLIS    PTSUNNY   23  13  65 SW8       30.07F WCI  14
$$

  *****  WEATHER ACROSS SOUTH DAKOTA  *****

CITY           SKY/WX    TMP DP  RH WIND       PRES   REMARKS
SIOUX FALLS    FAIR      34  24  67 SW7       30.07S
BROOKINGS      FAIR      31  27  85 SW5       30.02
WATERTOWN      FAIR      30  25  81 SW10      29.97F WCI  21
HURON          FAIR      34  25  69 S5        30.02F
SISSETON         N/A     39  24  55 CALM      29.93F
ABERDEEN       FAIR      29  24  82 S8        29.97F WCI  21
MITCHELL       FAIR      38  27  64 SW7       30.05F
PIERRE         FAIR      34  24  67 W10       29.98F
MOBRIDGE       FAIR      33  25  72 S3        29.92F
RAPID CITY     FAIR      38  24  57 CALM      29.97F
$$

  *****  SOME WEATHER IN NEARBY STATES *****

CITY           SKY/WX    TMP DP  RH WIND       PRES   REMARKS
GLASGOW MT     FAIR      28  23  81 S5        29.83F WCI  23
GREAT FALLS MT FAIR      41  10  28 SW35G46   29.84F
CHEYENNE WY    FAIR      44   9  23 W20G30    30.10F
SCOTTSBLUFF NE FAIR      41  22  46 NW8       30.08F
OMAHA NE       FAIR      35  25  66 S8        30.20F
DES MOINES IA  FAIR      33  21  61 W8        30.20S
DAVENPORT IA   FAIR      27  14  58 W15       30.18R WCI  15
CHICAGO IL     FAIR      31  19  61 W10       30.03R WCI  22
EAU CLAIRE WI  FAIR      22  10  60 W9        30.05S WCI  12
LA CROSSE WI   FAIR      27  12  53 NW7       30.10S WCI  19
$$

  *****  SOME NATIONAL WEATHER *****

CITY           SKY/WX    TMP DP  RH WIND       PRES   REMARKS
LA GUARDIA NY  PTSUNNY   51  33  50 W32G41    29.43R
RALEIGH NC     FAIR      55  32  41 NW14G21   29.83R
ATLANTA GA     FAIR      49  35  58 NW15G23   30.04R
NEW ORLEANS LA FAIR      56  37  49 N13G26    30.22S
OKLAHOMA CITY  FAIR      48  30  49 SW7       30.36R
ALBUQUERQUE NM FAIR      34  10  37 N7        30.34S
SALT LAKE CITY PTSUNNY   34  25  69 S5        30.29R
LOS ANGELES CA PTSUNNY   60  23  24 CALM      30.06S
BOISE ID       FAIR      31  23  72 NE3       30.22R
SEATTLE WA     CLOUDY    44  29  55 SE13      29.96F
$$

*** WEATHER ACROSS MANITOBA...SASKATCHEWAN AND ONTARIO ***
                ***ONTARIO***

CITY           SKY/WX    TMP DP  RH WIND       PRES   REMARKS
GERALDTON      LGT SNOW  10   7  85 SW7       29.77S WCI   0
THUNDER BAY    FLURRIES  18   9  68 NW13      29.88S WCI   4
SIOUX LOOKOUT  LGT SNOW  10   5  79 W9        29.81S WCI  -2
TORONTO        MOSUNNY   39  27  60 NW26G33   29.63R
BIG TROUT LK   LGT SNOW  10   7  85 W12G17    29.64S WCI  -4
PICKLE LAKE    FLURRIES  10   5  79 W13       29.71F WCI  -5
DRYDEN         FLURRIES   9   7  92 W8        29.83S WCI  -4
KENORA         PTSUNNY    9   5  85 SW6       29.85S WCI  -1
$$
                *** MANITOBA***

CITY           SKY/WX    TMP DP  RH WIND       PRES   REMARKS
BRANDON        SUNNY     10   7  85 N2        29.80F
DAUPHIN        SUNNY     16  10  79 SE7       29.85R WCI   6
ISLAND LAKE    CLOUDY     5   1  85 W14       29.73  WCI -12
PILOT MOUND      N/A     21  16  79 SW6         N/A  WCI  14
THE PAS        PTCLDY     3  -2  78 NW10      29.82F WCI -12
THOMPSON       FLURRIES   9   3  78 NW6       29.70S WCI  -1
WINNIPEG       PTSUNNY   16   9  73 SE6       29.87F WCI   7
LYNN LAKE      FLURRIES   1  -2  85 NW13G21   29.73S WCI -16
CHURCHILL      SNOW      18  14  86 N16G22    29.46S VSB 1/2 WCI   3
GILLAM         PTCLDY     5  -2  72 W15       29.63R WCI -13
$$
                ***SASKATCHEWAN***

CITY           SKY/WX    TMP DP  RH WIND       PRES   REMARKS
ESTEVAN        CLOUDY    23  18  80 SW8       29.80S WCI  14
KINDERSLEY     CLOUDY    18  14  86 S5        29.63F WCI  11
LLOYDMINSTER   MOCLDY     9   7  92 E9        29.61F WCI  -5
PRINCE ALBERT  CRYSTALS   3   0  85 VRB2      29.81F
REGINA         CLOUDY    10   9  92 SW7       29.76F WCI   0
YORKTON        SUNNY      5   3  92 NW3       29.78S F


USA.gov is the U.S. government's official web portal to all federal, state and local government web resources and services.